N643LT KSAN-

Flight info

Callsign N643LT
Flight time N/A
Altitude VFR
Route PTRN
Aircraft C152/L-VD/A

Departure

Time 2026-04-26 13:57
Airport San Diego International Airport (KSAN)

Arrival

Time N/A
Airport -
Time Latitude Longitude Altitude Speed Heading
2026-04-26 13:51 32.73376 -117.17983 23 ft 0 kts 290°
2026-04-26 13:53 32.73379 -117.17988 23 ft 3 kts 310°
2026-04-26 13:53 32.73388 -117.17969 26 ft 6 kts 115°
2026-04-26 13:54 32.73359 -117.17953 34 ft 8 kts 171°
2026-04-26 13:54 32.73312 -117.17953 22 ft 9 kts 150°
2026-04-26 13:54 32.73287 -117.17892 21 ft 9 kts 107°
2026-04-26 13:55 32.73251 -117.17742 21 ft 11 kts 105°
2026-04-26 13:55 32.73236 -117.17692 21 ft 8 kts 129°
2026-04-26 13:55 32.73087 -117.17676 20 ft 11 kts 194°
2026-04-26 13:56 32.73055 -117.17728 19 ft 9 kts 286°
2026-04-26 13:56 32.73094 -117.17896 18 ft 44 kts 285°
2026-04-26 13:56 32.73208 -117.18323 166 ft 55 kts 284°
2026-04-26 13:56 32.73350 -117.18716 389 ft 52 kts 284°
2026-04-26 13:57 32.73457 -117.19128 583 ft 54 kts 279°
2026-04-26 13:57 32.73545 -117.19546 811 ft 49 kts 284°
2026-04-26 13:57 32.73908 -117.19682 988 ft 76 kts
2026-04-26 13:57 32.74292 -117.19157 1121 ft 95 kts 77°
2026-04-26 13:58 32.74208 -117.18374 1157 ft 100 kts 107°
2026-04-26 13:58 32.74020 -117.17592 1247 ft 98 kts 110°
2026-04-26 13:58 32.73810 -117.16818 1208 ft 95 kts 115°
2026-04-26 13:58 32.73551 -117.16178 1264 ft 83 kts 122°
2026-04-26 13:59 32.73189 -117.15686 1237 ft 74 kts 159°
2026-04-26 13:59 32.72756 -117.15680 1137 ft 60 kts 227°
2026-04-26 13:59 32.72655 -117.16187 959 ft 74 kts 279°
2026-04-26 14:00 32.73033 -117.17577 236 ft 47 kts 282°
2026-04-26 14:00 32.73111 -117.17927 116 ft 47 kts 278°
2026-04-26 14:00 32.73172 -117.18195 63 ft 53 kts 282°
2026-04-26 14:01 32.73300 -117.18724 43 ft 45 kts 280°
2026-04-26 14:01 32.73406 -117.19060 249 ft 40 kts 282°
2026-04-26 14:01 32.73522 -117.19360 428 ft 41 kts 286°
2026-04-26 14:01 32.73650 -117.19655 635 ft 41 kts 281°
2026-04-26 14:02 32.73822 -117.19935 798 ft 58 kts 334°
2026-04-26 14:02 32.74246 -117.19668 939 ft 87 kts 53°
2026-04-26 14:02 32.74220 -117.18935 1100 ft 92 kts 108°
2026-04-26 14:02 32.74025 -117.18223 1246 ft 90 kts 116°
2026-04-26 14:03 32.73761 -117.17457 1221 ft 110 kts 118°
2026-04-26 14:03 32.73445 -117.16687 1229 ft 96 kts 122°
2026-04-26 14:03 32.73108 -117.16049 1244 ft 89 kts 151°
2026-04-26 14:03 32.72621 -117.16061 1041 ft 70 kts 236°
2026-04-26 14:04 32.72699 -117.16534 757 ft 66 kts 304°
2026-04-26 14:04 32.72902 -117.17000 428 ft 63 kts 278°
2026-04-26 14:04 32.73007 -117.17478 223 ft 59 kts 275°
2026-04-26 14:04 32.73110 -117.17938 93 ft 55 kts 279°
2026-04-26 14:05 32.73207 -117.18353 21 ft 53 kts 278°
2026-04-26 14:05 32.73287 -117.18681 15 ft 25 kts 284°
2026-04-26 14:05 32.73331 -117.18799 18 ft 11 kts 314°
2026-04-26 14:05 32.73395 -117.18810 17 ft 9 kts 21°
2026-04-26 14:06 32.73422 -117.18753 20 ft 8 kts 111°
2026-04-26 14:06 32.73398 -117.18667 24 ft 6 kts 107°
2026-04-26 14:06 32.73377 -117.17985 29 ft 0 kts 290°